sat.trackr.live / text

‹ back to catalog

GLOBALSTAR M090

NORAD 38044 · 2011-080E

PAYLOAD ACTIVE UNKNOWN

§ Identity

Operator
Country
GLOB
Launch date
2011-12-28
Launch site
TYMSC
Launch vehicle
Mass (kg)
RCS (m²)
4.55

Purposes: comms

External: N2YO · Heavens-Above · Gunter

§ Orbital elements

Epoch: 2026-09-20T04:02:23.846784Z

Period
114.08 min
Inclination
52.0135°
Eccentricity
0.0000801
Mean motion
12.62268109 rev/d
Perigee alt
1,413.0 km
Apogee alt
1,414.2 km
Semi-major
7,791.7 km
B*
-3.8581e-5
RAAN
39.3713°
Arg perigee
121.4887°
Mean anomaly
49.6077°
Rev number
68,170

§ Raw data

GLOBALSTAR M0901 38044U 11080E   26263.16833156 -.00000111  00000+0 -38581-4 0  99942 38044  52.0135  39.3713 0000801 121.4887  49.6077 12.62268109681705

JSON: /api/v1/satellites/38044 · /tle

For live sub-satellite position, see the globe view (requires WebGL).

§ Visibility from observer

Set your observer location to see the next 7 days of passes ≥ 10°. The values pass through the URL so the page stays shareable.

No JS? Fill the form by hand. The geolocation button needs JavaScript.